Regional Weather Roundup
Issued by NWS

Home | Current Version | Previous Version | Graphics & Text | Print | Product List | Glossary On
Versions: 1 2 3 4 5 6 7 8 9 10 11 12 13 14 15 16 17 18 19 20 21 22 23 24 25 26 27 28 29 30 31 32 33 34 35 36 37 38 39 40 41 42 43 44 45 46 47 48 49 50
268
ASUS43 KBIS 211210
RWRND

NORTH DAKOTA REGIONAL WEATHER ROUNDUP
NATIONAL WEATHER SERVICE BISMARCK ND
600 AM CST SAT JAN 21 2017

NOTE: "FAIR" INDICATES FEW OR NO CLOUDS BELOW 12,000 FEET WITH NO
SIGNIFICANT WEATHER AND/OR OBSTRUCTIONS TO VISIBILITY.


NDZ001>003-009>011-017-211300-
NORTHWEST NORTH DAKOTA

CITY           SKY/WX    TMP DP  RH WIND       PRES   REMARKS
WILLISTON      CLOUDY    26  23  88 E6        29.30S WCI  19
6HR MIN TEMP:  19; 6HR MAX TEMP:  30;

MINOT          CLOUDY    28  26  92 CALM      29.30S FOG
MINOT AFB      CLOUDY    26  26  96 CALM      29.29F FOG
$$

NDZ018>021-031>035-040>046-211300-
SOUTHWEST NORTH DAKOTA

CITY           SKY/WX    TMP DP  RH WIND       PRES   REMARKS
BISMARCK       CLOUDY    30  28  92 W6        29.32S FOG
6HR MIN TEMP:  30; 6HR MAX TEMP:  32;

DICKINSON      CLOUDY    29  26  89 W9        29.27S
GARRISON         N/A     23  22  96 CALM      29.30R
6HR MIN TEMP:  23; 6HR MAX TEMP:  24;

HETTINGER ARPT CLOUDY    32  28  85 W14       29.31S
$$

NDZ004>008-012>016-024-026-027-054-211300-
NORTHEAST NORTH DAKOTA

CITY           SKY/WX    TMP DP  RH WIND       PRES   REMARKS
GRAND FORKS    CLOUDY    35  32  88 SE8       29.39S
GRND FRKS AFB  CLOUDY    33  33  99 SE6       29.38S
DEVILS LAKE    FOG       33  32  96 SE7       29.34R VSB 1/4
$$

NDZ022-023-025-028>030-036>039-047>053-211300-
SOUTHEAST NORTH DAKOTA

CITY           SKY/WX    TMP DP  RH WIND       PRES   REMARKS
FARGO          CLOUDY    38  35  89 SE13      29.37F
6HR MIN TEMP:  37; 6HR MAX TEMP:  39;

JAMESTOWN      FOG       33  33 100 SE10      29.32S VSB 3/4
$$





USA.gov is the U.S. government's official web portal to all federal, state and local government web resources and services.